{"data":{"norad_id":52494,"intl_designator":"2022-049AV","name":"STARLINK-3857","alt_names":[],"object_type":"PAYLOAD","status":"ACTIVE","operator":null,"country":"US","launch_date":"2022-05-06","launch_site_code":"AFETR","launch_vehicle":null,"mission":null,"orbit_class":"UNKNOWN","rcs_meters":null,"size_class":null,"mass_kg":null,"dimensions":null,"purposes":["comms"],"wikipedia_slug":null,"has_3d_model":false,"image_url":null,"decayed_at":null,"tle_current":{"epoch":"2026-05-25T04:25:18.387840Z","epoch_age_seconds":53075,"freshness":"FRESH","line1":"1 52494U 22049AV  26145.18424060 -.00001247  00000+0 -60250-4 0  9996","line2":"2 52494  53.2141  65.7199 0001217  80.4584 279.6546 15.08844032223943","mean_motion":15.08844032,"eccentricity":0.0001217,"inclination_deg":53.2141,"raan_deg":65.7199,"arg_perigee_deg":80.4584,"mean_anomaly_deg":279.6546,"bstar":-6.025e-5,"rev_number":22394,"period_min":95.437299645296,"perigee_km":538.88916023709,"apogee_km":540.57296932406,"semimajor_km":6917.8680647806,"source":"CELESTRAK","updated_at":"2026-05-25T13:38:17.158701Z"}}}